Miscellaneous Local Product
Issued by NWS North Platte, NE

Home | Current Version | Previous Version | Graphics & Text | Print | Product List | Glossary On
Versions: 1 2 3 4 5 6 7 8 9 10 11 12 13 14 15 16 17 18 19 20 21 22 23 24 25 26 27 28 29 30 31 32 33 34 35 36 37 38 39 40 41 42 43 44 45 46 47 48 49 50
000
AXUS43 KLBF 280710
MISLBF


WESTERN AND NORTH CENTRAL NEBRASKA HOURLY WEATHER ROUNDUP
NATIONAL WEATHER SERVICE NORTH PLATTE NE
200 AM CDT TUE JUL 28 2015

***STATIONS NOT REPORTING VARIABLES SUCH AS SKY/WEATHER OR
PRESSURE ARE PROVIDED BY THE NEBRASKA DEPARTMENT OF
ROADS...RAWS...AND APRS NETWORKS...AND ARE NOT UNDER
NATIONAL WEATHER SERVICE QUALITY CONTROL***

...OBSERVATIONS IN AND NEAR THE EASTERN PANHANDLE OF NEBRASKA...

CITY           SKY/WX    TMP DP  RH WIND       PRES   REMARKS
PINE RIDGE     PTCLDY    64  58  80 W8        29.85R
CHADRON        PTCLDY    62  52  69 W22G28    29.90R
ALLIANCE       PTCLDY    70  44  39 NW10      29.88R
SIDNEY         CLEAR     72  51  47 N18G25    29.92R
BIG SPRINGS      N/A     73  69  87 CALM        N/A
$$

...OBSERVATIONS IN NORTH CENTRAL NEBRASKA...

CITY           SKY/WX    TMP DP  RH WIND       PRES   REMARKS
VALENTINE      LGT RAIN  69  64  84 E5        29.79R
THEDFORD       CLOUDY    69  63  79 NW6       29.80F
AINSWORTH      CLOUDY    74  62  66 SW17G26   29.81R
O`NEILL        PTCLDY    81  71  72 S20G25    29.71F
ORD            CLEAR     80  66  62 S12G21    29.72F
BROKEN BOW     PTCLDY    81  67  62 S13G25    29.73F
SPRINGVIEW       N/A     76  68  76 N5G29       N/A
CHAMBERS         N/A     79  69  72 S9          N/A
EWING            N/A     78  73  85 S6G13       N/A
$$

...OBSERVATIONS IN SOUTHWEST NEBRASKA AND FAR NORTHEAST COLORADO...

CITY           SKY/WX    TMP DP  RH WIND       PRES   REMARKS
WRAY           FAIR      75  58  55 SW8       29.80R
HOLYOKE        FAIR      72  64  78 S5        29.80R
IMPERIAL       CLEAR     78  65  63 NW10G21   29.78R
OGALLALA       PTCLDY    74  69  86 E3        29.77R
NORTH PLATTE   CLEAR     79  68  69 S13G21    29.73R
MCCOOK         CLEAR     84  68  58 S23G29    29.74R
LEXINGTON      CLEAR     81  68  65 S21       29.75S
PAXTON           N/A     79  71  75 CALM        N/A
BRADY            N/A     78  69  73 CALM        N/A
CALLAWAY         N/A     77  71  81 S14         N/A
$$

...NORTH PLATTE AREA...

CITY           SKY/WX    TMP DP  RH WIND       PRES   REMARKS
AIRPORT        CLEAR     79  68  69 S13G21    29.73R
DOWNTOWN         N/A     80  70  71 NW10G22     N/A
SANDRIDGE        N/A     79  69  72 NW9G24      N/A
HILLCREST        N/A     80  71  73 NW12G22     N/A
$$

...SOME WEATHER OBSERVATIONS FROM AROUND THE REGION...

CITY           SKY/WX    TMP DP  RH WIND       PRES   REMARKS
DENVER         CLEAR     71  37  28 SW7       29.96R
LARAMIE        CLEAR     55  29  36 N3        30.18R
CHEYENNE       CLEAR     64  32  30 NW26G40   30.06R
SCOTTSBLUFF    CLEAR     63  52  67 NW8       29.93R
RAPID CITY     CLEAR     61  52  72 NW18      29.85R
PIERRE         CLOUDY    67  65  93 S9        29.67R
WINNER         FAIR      67  63  87 SE9       29.73F
SIOUX FALLS    MOCLDY    75  70  84 S15G28    29.73F
OMAHA          PTCLDY    77  71  82 SE14      29.82F
GRAND ISLAND   CLEAR     79  67  66 S20G26    29.76F
KANSAS CITY    CLEAR     77  73  87 SE9       29.89F
WICHITA        CLEAR     82  69  64 S15       29.87F
HAYS           CLEAR     81  66  61 S21G26    29.81S
LIBERAL        CLEAR     82  63  51 S18G25    29.89F
GOODLAND       CLEAR     77  64  64 S16       29.82R
$$



USA.gov is the U.S. government's official web portal to all federal, state and local government web resources and services.